Hourly Data Report for September 03, 2017

All times are specified in Local Standard Time (LST). Add 1 hour to adjust for Daylight Saving Time where and when it is observed.

CAPE DORSET A
NUNAVUT

64°13'49.000" N
76°31'30.000" W
48.20 m
2400637
71366
YTE

Download Data

Hourly Data (September 2017)
Hourly Data Report for September 3, 2017
Temp Definition
°C
Dew Point Temp Definition
°C
Rel Hum Definition
%
Wind Dir Definition
10's deg

Wind Spd Definition
km/h
Visibility Definition
km
Stn Press Definition
kPa
Hmdx Definition


Wind Chill Definition


Weather Definition


TIME
00:00 Legend Double Dagger 4.9 4.9 100 10 13 0.6 99.62     Fog
01:00 Legend Double Dagger 5.3 5.3 100 8 17 0.6 99.62     Fog
02:00 Legend Double Dagger 5.5 5.5 100 10 15 0.6 99.58     Fog
03:00 Legend Double Dagger 5.8 5.8 100 10 17 0.6 99.57     Fog
04:00 Legend Double Dagger 5.6 5.6 100 10 11 0.4 99.56     Fog
05:00 Legend Double Dagger 6.2 6.2 100 8 13 0.2 99.55     Rain,Fog
06:00 Legend Double Dagger 6.4 6.4 100 7 13 0.2 99.52     Rain,Fog
07:00 Legend Double Dagger 6.3 6.3 100 6 15 1.0 99.50     Rain,Fog
08:00 Legend Double Dagger 6.7 6.7 100 7 18 16.1 99.45     Rain
09:00 Legend Double Dagger 6.7 6.7 100 7 24 0.6 99.41     Rain,Fog
10:00 Legend Double Dagger 6.6 6.6 100 7 18 1.6 99.38     Rain,Fog
11:00 Legend Double Dagger 6.9 6.9 100 7 22 11.3 99.33     Rain
12:00 Legend Double Dagger 5.9 5.9 100 10 15 3.6 99.30     Rain,Fog
13:00 Legend Double Dagger 5.7 5.7 100 9 13 0.6 99.31     Rain,Fog
14:00 Legend Double Dagger 5.5 5.5 100 9 15 1.0 99.31     Rain,Fog
15:00 Legend Double Dagger 5.0 5.0 100 9 18 0.6 99.35     Rain,Fog
16:00 Legend Double Dagger 4.6 4.6 100 10 13 0.8 99.38     Rain,Fog
17:00 Legend Double Dagger 5.7 5.7 100 13 5 0.6 99.40     Rain,Fog
18:00 Legend Double Dagger 7.2 7.2 100 5 5 16.1 99.41     LegendNANA
19:00 Legend Double Dagger 6.9 6.9 100 2 5 16.1 99.44     Rain
20:00 Legend Double Dagger 6.8 6.7 99   0 16.1 99.50     LegendNANA
21:00 Legend Double Dagger 6.4 6.3 99 LegendMM 11 16.1 99.51     LegendNANA
22:00 Legend Double Dagger 6.3 6.0 98 35 13 16.1 99.50     LegendNANA
23:00 Legend Double Dagger 6.1 6.0 99 4 13 16.1 99.47     LegendNANA

Notes on Data Quality.

Legend

  • E = Estimated
  • M = Missing
  • NA = Not Available
  • ‡ = Partner data that is not subject to review by the National Climate Archives
Date modified: